Regional Weather Roundup
Issued by NWS Portland, ME

Home | Current Version | Previous Version | Text Only | Print | Product List | Glossary On
Versions: 1 2 3 4 5 6 7 8 9 10 11 12 13 14 15 16 17 18 19 20 21 22 23 24 25 26 27 28 29 30 31 32 33 34 35 36 37 38 39 40 41 42 43 44 45 46 47 48 49 50
000
ASUS41 KGYX 271110
RWRGYX
WEATHER ROUNDUP FOR MAINE AND NEW HAMPSHIRE
NATIONAL WEATHER SERVICE GRAY ME
700 AM EDT TUE JUN 27 2017

MEZ002-005-006-010-012-015-018-020-021-024-026-027-029-271200-
MAINE

CITY           SKY/WX    TMP DP  RH WIND       PRES   REMARKS
PORTLAND       PTSUNNY   60  53  77 S3        29.99S
SANFORD        CLOUDY    58  55  90 SW5       30.00S
BAR HARBOR     PTSUNNY   57  53  86 SE3       30.01R
WISCASSET      MOSUNNY   59  55  87 CALM      30.01R
ROCKLAND       MOSUNNY   58  56  93 CALM      29.99R
FRYEBURG       MOSUNNY   58  52  80 VRB3      29.99R
LEWISTONAUBURN MOSUNNY   58  55  90 CALM      29.99R
AUGUSTA        CLOUDY    55  53  93 CALM      29.99R
BANGOR         CLOUDY    59  55  87 S3        29.99S
GREENVILLE       N/A     57  46  66 CALM      29.98R
MILLINOCKET    CLOUDY    55  54  96 CALM      30.01S
HOULTON        PTSUNNY   54  51  90 CALM      30.00R
PRESQUE ISLE   MOSUNNY   48  47  96 CALM      30.01R
FRENCHVILLE    SUNNY     49  43  80 E5        30.00S
CARIBOU        MOSUNNY   53  45  74 CALM      30.00R
$$

NHZ002-005-008-009-011-012-014-271200-
NEW HAMPSHIRE

CITY           SKY/WX    TMP DP  RH WIND       PRES   REMARKS
PORTSMOUTH     PTSUNNY   60  55  84 CALM      29.98S
ROCHESTER      MOSUNNY   57  54  89 CALM      29.99S
NASHUA         CLOUDY    57  56  96 CALM      30.00S
MANCHESTER     CLOUDY    58  54  86 CALM      29.98S
CONCORD        PTSUNNY   57  56  96 SE3       30.00R
LACONIA        CLOUDY   N/A N/A N/A SW6       30.00R
PLYMOUTH       FAIR      53  51  95 CALM      30.00S
BERLIN         CLOUDY    50  47  89 CALM      30.01R
WHITEFIELD     SUNNY     51  48  89 CALM      30.01R
JAFFREY        MOSUNNY   56  56 100 CALM      30.00F
KEENE          CLOUDY    55  55 100 CALM      30.01R
LEBANON        CLOUDY    57  55  93 CALM      30.00R
MT WASHINGTON  MOSUNNY   39  37  93 SW22        N/A
$$

VTZ005-007-008-271200-
VERMONT

CITY           SKY/WX    TMP DP  RH WIND       PRES   REMARKS
ST JOHNSBURY     N/A     54  53  97 MISG      29.98S
MONTPELIER     MOSUNNY   57  52  83 S8        30.02S
BURLINGTON     MOSUNNY   59  55  87 S7        29.97R
$$

MAZ007-012-024-CTZ003-RIZ002-NYZ038-NYZ072-271200-
SOUTHERN NEW ENGLAND AND NY

CITY           SKY/WX    TMP DP  RH WIND       PRES   REMARKS
BOSTON         MOSUNNY   64  56  75 S6        30.00S
WORCESTER      PTSUNNY   60  51  72 CALM      30.01S
NANTUCKET      SUNNY     64  59  83 SE8       30.03S
PROVIDENCE     PTSUNNY   64  60  87 SW3       30.02R
HARTFORD       LGT RAIN  59  55  87 SW5       30.02R
ALBANY         CLOUDY    58  55  90 CALM      30.00R
NEW YORK CITY  PTSUNNY   63  60  90 E7        29.99F
$$

ANZ081-ANZ082-ANZ150-NHZ014-MEZ023>029-271200-
COASTAL MARINE OBSERVATIONS

STATION/POSITION TIME  TEMP    WIND        PRES    WAVE
                       AIR SEA DIR/SP/G            HT/PER
                 (UTC) (F)     (DEG/KT/KT) (MB)    (FT/S)
MATINICUS ROCK   1000   59     230/  8/  8 1015.1R
ISLE OF SHOALS   1000   59     210/  4/  4 1015.6F
JEFFREYS LEDGE   1006      57                N/A     2/ 8
CASHES LEDGE BUO 1050   65 61              1016.2R   2/ 7
GEORGES BANK BUO 0950   58 54              1018.1    3/ 8
$$

.............KEY..............
   WCI - WIND CHILL
   TC  - TEMPERATURE IN CELSIUS
   VSB - VISIBILITY IN MILES
   HX  - HEAT INDEX
   FAIR- INDICATES FEW OR NO CLOUDS BELOW 12,000 FT, WITH NO
         SIGNIFICANT WEATHER AND/OR OBSTRUCTIONS TO VISIBILITY.






USA.gov is the U.S. government's official web portal to all federal, state and local government web resources and services.